RYR24Y GCFV-GCLA

Flight info

Callsign RYR24Y
Flight time 0h 47m
Altitude 31000
Route LARYS
Aircraft B38M/M-SDE1FGHILORVWXY/HB1

Departure

Time 2026-05-07 13:26
Airport Fuerteventura Airport (GCFV)

Arrival

Time 2026-05-07 14:14
Airport La Palma Airport (GCLA)
Time Latitude Longitude Altitude Speed Heading
2026-05-07 13:23 28.44906 -13.86748 102 ft 4 kts 182°
2026-05-07 13:23 28.44867 -13.86726 100 ft 10 kts 117°
2026-05-07 13:23 28.44852 -13.86614 96 ft 18 kts 115°
2026-05-07 13:23 28.44704 -13.86584 79 ft 28 kts 182°
2026-05-07 13:24 28.44495 -13.86593 72 ft 33 kts 181°
2026-05-07 13:24 28.44253 -13.86601 59 ft 37 kts 182°
2026-05-07 13:24 28.44016 -13.86606 55 ft 25 kts 181°
2026-05-07 13:24 28.43820 -13.86614 47 ft 31 kts 184°
2026-05-07 13:25 28.43630 -13.86623 43 ft 22 kts 181°
2026-05-07 13:25 28.43505 -13.86583 38 ft 17 kts 96°
2026-05-07 13:25 28.43596 -13.86500 35 ft 19 kts 29°
2026-05-07 13:25 28.43726 -13.86445 35 ft 22 kts 11°
2026-05-07 13:26 28.44007 -13.86422 38 ft 81 kts
2026-05-07 13:26 28.44876 -13.86390 81 ft 165 kts
2026-05-07 13:26 28.46166 -13.86352 723 ft 201 kts
2026-05-07 13:26 28.47505 -13.86268 2113 ft 191 kts
2026-05-07 13:27 28.48836 -13.85747 2732 ft 216 kts 28°
2026-05-07 13:27 28.50171 -13.84797 3347 ft 234 kts 20°
2026-05-07 13:27 28.51591 -13.84681 4235 ft 227 kts 342°
2026-05-07 13:27 28.52775 -13.85442 4932 ft 235 kts 313°
2026-05-07 13:28 28.53632 -13.87088 5585 ft 252 kts 289°
2026-05-07 13:28 28.54169 -13.89048 6333 ft 261 kts 291°
2026-05-07 13:28 28.54875 -13.90956 7283 ft 265 kts 291°
2026-05-07 13:28 28.55590 -13.92913 8131 ft 269 kts 291°
2026-05-07 13:29 28.56297 -13.94875 9029 ft 273 kts 290°
2026-05-07 13:29 28.57021 -13.96901 9938 ft 277 kts 290°
2026-05-07 13:29 28.57763 -13.98979 10586 ft 290 kts 290°
2026-05-07 13:29 28.58551 -14.01162 11128 ft 305 kts 290°
2026-05-07 13:30 28.59359 -14.03408 11795 ft 314 kts 289°
2026-05-07 13:30 28.60183 -14.05722 12710 ft 316 kts 289°
2026-05-07 13:30 28.61007 -14.08059 13590 ft 320 kts 288°
2026-05-07 13:30 28.61839 -14.10418 14415 ft 323 kts 288°
2026-05-07 13:31 28.62679 -14.12810 15273 ft 326 kts 288°
2026-05-07 13:31 28.63524 -14.15215 16112 ft 329 kts 287°
2026-05-07 13:31 28.64377 -14.17647 16932 ft 332 kts 287°
2026-05-07 13:31 28.65226 -14.20069 17725 ft 335 kts 287°
2026-05-07 13:32 28.66095 -14.22547 18490 ft 338 kts 287°
2026-05-07 13:32 28.66971 -14.25050 19174 ft 341 kts 287°
2026-05-07 13:32 28.67854 -14.27575 19851 ft 345 kts 287°
2026-05-07 13:32 28.68746 -14.30128 20517 ft 348 kts 287°
2026-05-07 13:33 28.69645 -14.32703 21175 ft 351 kts 287°
2026-05-07 13:33 28.70547 -14.35291 21825 ft 354 kts 287°
2026-05-07 13:33 28.71457 -14.37904 22461 ft 357 kts 287°
2026-05-07 13:33 28.72379 -14.40552 23108 ft 360 kts 287°
2026-05-07 13:34 28.73295 -14.43187 23708 ft 363 kts 287°
2026-05-07 13:34 28.75171 -14.48589 24773 ft 368 kts 287°
2026-05-07 13:34 28.76114 -14.51311 25295 ft 371 kts 287°
2026-05-07 13:35 28.77066 -14.54059 25809 ft 373 kts 287°
2026-05-07 13:35 28.78009 -14.56785 26317 ft 375 kts 287°
2026-05-07 13:35 28.78971 -14.59565 26825 ft 377 kts 287°
2026-05-07 13:35 28.79932 -14.62350 27330 ft 379 kts 288°
2026-05-07 13:36 28.80906 -14.65171 27803 ft 382 kts 288°
2026-05-07 13:36 28.81882 -14.68003 28282 ft 384 kts 288°
2026-05-07 13:36 28.82852 -14.70819 28745 ft 387 kts 288°
2026-05-07 13:36 28.83839 -14.73687 29240 ft 388 kts 288°
2026-05-07 13:37 28.84822 -14.76548 29864 ft 386 kts 288°
2026-05-07 13:37 28.85801 -14.79400 30469 ft 384 kts 288°
2026-05-07 13:37 28.86576 -14.82303 30795 ft 381 kts 276°
2026-05-07 13:37 28.86539 -14.85238 30888 ft 373 kts 259°
2026-05-07 13:38 28.85972 -14.88129 31007 ft 375 kts 258°
2026-05-07 13:38 28.84763 -14.93892 31029 ft 373 kts 257°
2026-05-07 13:39 28.83482 -14.99622 31026 ft 372 kts 256°
2026-05-07 13:39 28.82187 -15.05298 31025 ft 372 kts 256°
2026-05-07 13:40 28.80876 -15.11011 31026 ft 372 kts 256°
2026-05-07 13:40 28.79562 -15.16724 31029 ft 372 kts 256°
2026-05-07 13:41 28.78257 -15.22384 31027 ft 372 kts 256°
2026-05-07 13:41 28.76939 -15.28087 31030 ft 372 kts 256°
2026-05-07 13:42 28.75620 -15.33787 31030 ft 372 kts 256°
2026-05-07 13:42 28.74306 -15.39450 31029 ft 371 kts 256°
2026-05-07 13:43 28.72980 -15.45152 31029 ft 371 kts 256°
2026-05-07 13:43 28.71656 -15.50838 31038 ft 369 kts 256°
2026-05-07 13:43 28.71010 -15.53605 31035 ft 353 kts 256°
2026-05-07 13:44 28.70400 -15.56223 31034 ft 338 kts 256°
2026-05-07 13:44 28.69806 -15.58763 30950 ft 326 kts 256°
2026-05-07 13:44 28.69221 -15.61260 30659 ft 330 kts 256°
2026-05-07 13:44 28.68624 -15.63812 30191 ft 335 kts 256°
2026-05-07 13:45 28.68020 -15.66389 29695 ft 338 kts 256°
2026-05-07 13:45 28.67411 -15.68982 29236 ft 338 kts 256°
2026-05-07 13:45 28.66805 -15.71567 28806 ft 337 kts 256°
2026-05-07 13:45 28.66209 -15.74100 28396 ft 335 kts 256°
2026-05-07 13:46 28.65607 -15.76660 27985 ft 333 kts 256°
2026-05-07 13:46 28.65010 -15.79197 27593 ft 330 kts 256°
2026-05-07 13:46 28.64416 -15.81716 27201 ft 328 kts 255°
2026-05-07 13:46 28.63832 -15.84194 26825 ft 326 kts 255°
2026-05-07 13:47 28.63242 -15.86691 26446 ft 325 kts 255°
2026-05-07 13:47 28.62658 -15.89165 26079 ft 323 kts 255°
2026-05-07 13:47 28.62075 -15.91630 25720 ft 321 kts 255°
2026-05-07 13:47 28.61495 -15.94078 25366 ft 319 kts 255°
2026-05-07 13:48 28.60917 -15.96517 25016 ft 318 kts 255°
2026-05-07 13:48 28.60344 -15.98936 24670 ft 316 kts 255°
2026-05-07 13:48 28.59775 -16.01336 24337 ft 314 kts 255°
2026-05-07 13:48 28.59213 -16.03698 23994 ft 312 kts 255°
2026-05-07 13:49 28.58649 -16.06070 23667 ft 309 kts 255°
2026-05-07 13:49 28.58089 -16.08425 23290 ft 307 kts 255°
2026-05-07 13:49 28.57539 -16.10737 22936 ft 303 kts 255°
2026-05-07 13:49 28.56990 -16.13042 22598 ft 299 kts 254°
2026-05-07 13:50 28.56450 -16.15310 22291 ft 295 kts 254°
2026-05-07 13:50 28.55915 -16.17550 21965 ft 290 kts 254°
2026-05-07 13:50 28.55387 -16.19762 21667 ft 287 kts 254°
2026-05-07 13:50 28.54866 -16.21945 21335 ft 292 kts 255°
2026-05-07 13:51 28.54326 -16.24205 21043 ft 298 kts 255°
2026-05-07 13:51 28.53785 -16.26492 20718 ft 300 kts 256°
2026-05-07 13:51 28.53562 -16.28845 20353 ft 300 kts 264°
2026-05-07 13:51 28.53404 -16.31192 20064 ft 296 kts 263°
2026-05-07 13:52 28.53226 -16.33517 19762 ft 293 kts 263°
2026-05-07 13:52 28.53040 -16.35815 19446 ft 291 kts 263°
2026-05-07 13:52 28.52851 -16.38062 19158 ft 287 kts 263°
2026-05-07 13:52 28.52657 -16.40319 18860 ft 284 kts 263°
2026-05-07 13:53 28.52463 -16.42551 18561 ft 282 kts 262°
2026-05-07 13:53 28.52269 -16.44764 18257 ft 279 kts 262°
2026-05-07 13:53 28.52075 -16.46963 17865 ft 282 kts 264°
2026-05-07 13:53 28.51876 -16.49234 17537 ft 293 kts 264°
2026-05-07 13:54 28.51671 -16.51555 17242 ft 298 kts 264°
2026-05-07 13:54 28.51466 -16.53875 16922 ft 298 kts 264°
2026-05-07 13:54 28.51259 -16.56212 16601 ft 297 kts 264°
2026-05-07 13:54 28.51052 -16.58537 16283 ft 294 kts 264°
2026-05-07 13:55 28.50851 -16.60801 16222 ft 282 kts 264°
2026-05-07 13:55 28.50655 -16.63003 16067 ft 278 kts 264°
2026-05-07 13:55 28.50457 -16.65215 15813 ft 287 kts 264°
2026-05-07 13:55 28.50253 -16.67498 15519 ft 292 kts 264°
2026-05-07 13:56 28.50046 -16.69805 15206 ft 293 kts 264°
2026-05-07 13:56 28.49840 -16.72107 14881 ft 291 kts 265°
2026-05-07 13:56 28.49703 -16.73622 14674 ft 290 kts 265°
2026-05-07 13:56 28.49431 -16.76639 14243 ft 288 kts 265°
2026-05-07 13:57 28.49227 -16.78901 13914 ft 286 kts 265°
2026-05-07 13:57 28.49092 -16.80392 13679 ft 285 kts 265°
2026-05-07 13:57 28.48888 -16.82644 13317 ft 284 kts 265°
2026-05-07 13:57 28.48693 -16.84866 12949 ft 283 kts 265°
2026-05-07 13:58 28.48498 -16.87086 12617 ft 281 kts 265°
2026-05-07 13:58 28.48304 -16.89291 12322 ft 278 kts 265°
2026-05-07 13:58 28.48113 -16.91448 12017 ft 276 kts 265°
2026-05-07 13:58 28.47921 -16.93622 11709 ft 274 kts 266°
2026-05-07 13:59 28.47730 -16.95775 11413 ft 272 kts 266°
2026-05-07 13:59 28.47541 -16.97910 11107 ft 270 kts 266°
2026-05-07 13:59 28.47354 -17.00010 10815 ft 273 kts 266°
2026-05-07 13:59 28.47313 -17.00468 10757 ft 274 kts 266°
2026-05-07 14:00 28.47129 -17.02537 10463 ft 278 kts 266°
2026-05-07 14:00 28.46926 -17.04809 10152 ft 280 kts 266°
2026-05-07 14:00 28.46731 -17.06994 9966 ft 274 kts 266°
2026-05-07 14:00 28.46542 -17.09100 9727 ft 269 kts 266°
2026-05-07 14:01 28.46352 -17.11213 9396 ft 268 kts 266°
2026-05-07 14:01 28.46164 -17.13308 9080 ft 266 kts 265°
2026-05-07 14:01 28.45976 -17.15394 8785 ft 264 kts 266°
2026-05-07 14:01 28.45792 -17.17444 8490 ft 262 kts 266°
2026-05-07 14:02 28.45606 -17.19492 8203 ft 259 kts 266°
2026-05-07 14:02 28.45422 -17.21526 7927 ft 257 kts 266°
2026-05-07 14:02 28.45239 -17.23545 7626 ft 255 kts 265°
2026-05-07 14:02 28.45057 -17.25545 7345 ft 253 kts 265°
2026-05-07 14:03 28.44878 -17.27510 7063 ft 252 kts 265°
2026-05-07 14:03 28.44698 -17.29484 6782 ft 250 kts 264°
2026-05-07 14:03 28.44519 -17.31450 6508 ft 248 kts 264°
2026-05-07 14:03 28.44344 -17.33370 6236 ft 246 kts 264°
2026-05-07 14:04 28.44167 -17.35303 5934 ft 245 kts 264°
2026-05-07 14:04 28.43991 -17.37224 5654 ft 244 kts 265°
2026-05-07 14:04 28.43813 -17.39152 5379 ft 248 kts 265°
2026-05-07 14:04 28.43610 -17.41112 5115 ft 253 kts 264°
2026-05-07 14:05 28.43381 -17.43108 4831 ft 255 kts 263°
2026-05-07 14:05 28.43149 -17.45112 4596 ft 256 kts 263°
2026-05-07 14:05 28.42927 -17.47127 4392 ft 257 kts 264°
2026-05-07 14:05 28.42692 -17.49141 4181 ft 258 kts 264°
2026-05-07 14:06 28.42440 -17.51158 3967 ft 258 kts 264°
2026-05-07 14:06 28.42189 -17.53186 3747 ft 260 kts 264°
2026-05-07 14:06 28.41923 -17.55224 3529 ft 261 kts 264°
2026-05-07 14:06 28.41659 -17.57264 3320 ft 262 kts 263°
2026-05-07 14:07 28.41394 -17.59292 3101 ft 263 kts 264°
2026-05-07 14:07 28.41122 -17.61328 2924 ft 256 kts 263°
2026-05-07 14:07 28.40868 -17.63307 2700 ft 250 kts 264°
2026-05-07 14:07 28.40604 -17.65236 2495 ft 243 kts 263°
2026-05-07 14:08 28.40356 -17.67073 2482 ft 227 kts 264°
2026-05-07 14:08 28.40114 -17.68812 2447 ft 222 kts 264°
2026-05-07 14:08 28.39876 -17.70531 2466 ft 223 kts 269°
2026-05-07 14:08 28.40215 -17.72157 2414 ft 200 kts 307°
2026-05-07 14:09 28.41105 -17.73250 2453 ft 182 kts 334°
2026-05-07 14:09 28.42224 -17.73883 2452 ft 179 kts 341°
2026-05-07 14:09 28.43389 -17.74415 2455 ft 180 kts 347°
2026-05-07 14:09 28.44607 -17.74686 2427 ft 183 kts 355°
2026-05-07 14:10 28.45889 -17.74863 2473 ft 186 kts 354°
2026-05-07 14:10 28.47176 -17.75046 2466 ft 185 kts 354°
2026-05-07 14:10 28.48459 -17.75183 2442 ft 185 kts 358°
2026-05-07 14:10 28.49737 -17.75268 2323 ft 176 kts 358°
2026-05-07 14:11 28.50907 -17.75341 2120 ft 165 kts 358°
2026-05-07 14:11 28.51969 -17.75416 1884 ft 153 kts 358°
2026-05-07 14:11 28.53007 -17.75491 1732 ft 148 kts 359°
2026-05-07 14:11 28.54047 -17.75579 1756 ft 150 kts 358°
2026-05-07 14:12 28.55113 -17.75609 1579 ft 155 kts
2026-05-07 14:12 28.56184 -17.75518 1324 ft 152 kts
2026-05-07 14:12 28.57255 -17.75495 1066 ft 156 kts
2026-05-07 14:12 28.58323 -17.75505 867 ft 154 kts
2026-05-07 14:13 28.59393 -17.75523 639 ft 151 kts
2026-05-07 14:13 28.60425 -17.75523 433 ft 144 kts 358°
2026-05-07 14:13 28.61394 -17.75540 220 ft 135 kts 356°
2026-05-07 14:13 28.62289 -17.75557 116 ft 107 kts 359°
2026-05-07 14:14 28.62693 -17.75562 108 ft 41 kts 359°
2026-05-07 14:14 28.62998 -17.75570 99 ft 35 kts 359°
2026-05-07 14:14 28.63218 -17.75573 91 ft 24 kts 359°
2026-05-07 14:14 28.63405 -17.75577 84 ft 29 kts 358°
2026-05-07 14:15 28.63555 -17.75555 79 ft 12 kts 26°
2026-05-07 14:15 28.63588 -17.75580 75 ft 4 kts 245°
2026-05-07 14:15 28.63548 -17.75586 81 ft 12 kts 175°
2026-05-07 14:15 28.63419 -17.75575 88 ft 24 kts 180°
2026-05-07 14:16 28.63262 -17.75573 90 ft 23 kts 180°
2026-05-07 14:16 28.63120 -17.75568 93 ft 20 kts 178°
2026-05-07 14:16 28.62978 -17.75563 100 ft 21 kts 179°
2026-05-07 14:16 28.62838 -17.75562 103 ft 20 kts 180°
2026-05-07 14:17 28.62697 -17.75554 108 ft 20 kts 163°
2026-05-07 14:17 28.62586 -17.75460 111 ft 20 kts 152°
2026-05-07 14:17 28.62442 -17.75445 111 ft 22 kts 179°
2026-05-07 14:17 28.62287 -17.75443 116 ft 23 kts 179°
2026-05-07 14:18 28.62167 -17.75441 118 ft 13 kts 179°
2026-05-07 14:18 28.62088 -17.75429 116 ft 5 kts 133°
2026-05-07 14:18 28.62083 -17.75388 114 ft 5 kts 86°
2026-05-07 14:18 28.62084 -17.75373 116 ft 0 kts 87°